IRIDIUM 148

Last updated on Sun Jun 21 2026 00:03:14 GMT+0000 (Coordinated Universal Time)

1 43255U 18030G 26171.35115119 .00000060 00000+0 14450-4 0 9997 2 43255 86.3963 289.1373 0002305 96.2973 263.8486 14.34217889430624
UTC large
Height (km)
Speed (km/s)
/
Latitude / Longitude
Inclination (degrees)
Orbital Period (minutes)
Azimuth
Elevation
Range (km)
Doppler Factor

Next 0 passes for location: London (51.5072 / 0.1276)

No passes found over London.
IRIDIUM 148